THOR BURNER 2 R/B, 2422

Orbit data source: Space-Track

THOR BURNER 2 R/B, 2422 is space debris in SSO originally from a launch on Fri, 16 Sep 1966 UTC launched from the Air Force Western Test Range (AFWTR). Debris objects in space refer to the collection of defunct objects orbiting the Earth. Examples of debris include non-operational satellites, rocket bodies, and fragments generated from explosions, collisions, or faulty payload assembly.

Loading next visibility...
Identifier
2422, 1966-082B
Orbit
SSO
Country
Flag of USUS
Related business
Manufacturer
Thiokol/TE
Mission
Spacecraft
Bus & Motor
STAR 37, Unknown motor
Mass
136 kg wet, 136 kg dry
Launch date (UTC)
1966-09-16 (59 years ago)
Launch vehicle
Unknown
Launch site
Air Force Western Test Range (AFWTR)
Object type
Payload
Rocket body
Debris
Shape & HBR
Unknown
Radar Cross Section
Large (>1 m²)

Expand to show TLE details & history
Last TLE update: 22 hours ago

TLE from 22 hours ago
0 THOR BURNER 2 R/B
1 02422U 66082B   26062.44550163  .00000900  00000-0  24278-3 0  9991
2 02422  98.2273 220.0737 0110508 169.1416 191.2201 14.46676550 99982
Epoch: 2026-03-03T10:41Z
TLE epoch observation values (Epoch: 2026-03-03T10:41:31.340Z)
Latitude
0.00002°
Longitude
-101.53134°
Altitude
816.659 km
Speed
7.404 km/s
True Right ascension
14h 40m 17s
True Declination
0° 00' 00"
Sunlit
Object was in full shadow at epoch
Visualization orbit readout
Latitude
Unknown
Longitude
Unknown
Altitude
Unknown
Speed
Unknown
Apparent Right ascension
Unknown
Apparent Declination
Unknown
Sunlit
N/A
Visualization observer readout
Local Sidereal Time
12:12:46
Azimuth
Unknown
Elevation
Unknown
Doppler factor
Unknown
Orbital elements
Apogee altitude
812.214 km
Perigee altitude
655.033 km
Semi-major axis
7,111.761 km
Eccentricity
0.01105
Inclination
98.2273°
RAAN
220.0737°
Arg. of periapsis
169.1416°
True anomaly
190.977°
Mean anomaly
191.2201°
Eccentric anomaly
191.09822°
Mean motion
3.61891 °/min
Orbital period
99.48 mins
BSTAR
0.00024278
Loading maneuver chart data...
Computing Atmospheric mass density...
Loading historical data...
Loading historical data...
Loading historical data...
Loading historical data...
Loading historical data...
Loading historical data...
Loading historical data...
Other satellites on launch #82 in the year 1966 (1966-09-16 UTC)

Documentation

Showing up to 5 results
|